Skip Page Navigation
NASA JPL Caltech
NASA Logo - Jet Propulsion Laboratory + View the NASA Portal
+ Center for Near-Earth Object Studies
JPL Home Earth Solar System Stars & Galaxies Technology
JPL Solar System Dynamics
BODIES ORBITS EPHEMERIDES TOOLS PHYSICAL DATA DISCOVERY FAQ SITE MAP
JPL Small-Body Database Browser
Search: [ help ]  
134479 (1998 VJ52)
Classification: Main-belt Asteroid          SPK-ID: 2134479
Ephemeris | Orbit Diagram | Orbital Elements | Mission Design | Physical Parameters | Discovery Circumstances ]

[ show orbit diagram ]
Orbital Elements at Epoch 2459200.5 (2020-Dec-17.0) TDB
Reference: JPL 22 (heliocentric ecliptic J2000)
 Element Value Uncertainty (1-sigma)   Units 
e .1999772564054507 4.9195e-08  
a 2.621577954883049 1.2382e-08 au
q 2.097321988012524 1.2906e-07 au
i 10.74913249520647 4.1791e-06 deg
node 88.33343856490153 2.5505e-05 deg
peri 288.4023702461639 2.7267e-05 deg
M 98.99473813304941 9.4611e-06 deg
tp 2458774.163807992310
(2019-Oct-17.66380799)
4.0123e-05 TDB
period 1550.39582928629
4.24
1.0984e-05
3.007e-08
d
yr
n .2321987670501685 1.6451e-09 deg/d
Q 3.145833921753574 1.4858e-08 au
  Orbit Determination Parameters
   # obs. used (total)      794  
   data-arc span      8179 days (22.39 yr)  
   first obs. used      1998-10-19  
   last obs. used      2021-03-11  
   planetary ephem.      DE441  
   SB-pert. ephem.      SB441-N16  
   condition code      0  
   norm. resid. RMS      .53064  
   source      ORB  
   producer      Otto Matic  
   solution date      2021-Apr-13 18:08:33  

Additional Information
 Earth MOID = 1.12771 au 
 Jupiter MOID = 2.3942 au 
 T_jup = 3.351 
[ show covariance matrix ]

Ephemeris | Orbit Diagram | Orbital Elements | Mission Design | Physical Parameters | Discovery Circumstances ]

Physical Parameter Table
Parameter Symbol Value Units Sigma Reference Notes
absolute magnitude H 15.4   n/a MPO407048  

134479 (1998 VJ52)          Discovered 1998-Nov-13 by LINEAR at Socorro
Reference: 20060907/Numbers.arcLast Updated: 2006-09-10

Alternate Designations
 1998 VJ52 = 2000 EF147 
Ephemeris | Orbit Diagram | Orbital Elements | Mission Design | Physical Parameters | Discovery Circumstances ]
ABOUT SSD CREDITS/AWARDS PRIVACY/COPYRIGHT GLOSSARY LINKS
FirstGov 2021-Apr-16 12:37 UT
(server date/time)  
NASA Home Page
Site Manager:   Ryan S. Park
Webmaster  Alan B. Chamberlin